2015-02-22 00:03:30 r, 17.41m,0000000009Hz,0000048010c,0000000.104s,-007.5C,00002195
2015-02-22 00:13:30 r, 17.41m,0000000009Hz,0000048012c,0000000.104s,-007.5C,00002195
2015-02-22 00:23:30 r, 17.42m,0000000010Hz,0000048543c,0000000.105s,-007.5C,00002195
2015-02-22 00:33:30 r, 17.42m,0000000009Hz,0000048541c,0000000.105s,-007.5C,00002195
2015-02-22 00:43:30 r, 17.42m,0000000010Hz,0000047982c,0000000.104s,-007.8C,00002195
2015-02-22 00:53:30 r, 17.42m,0000000010Hz,0000048030c,0000000.104s,-007.8C,00002195
2015-02-22 01:03:30 r, 17.42m,0000000010Hz,0000048161c,0000000.105s,-007.8C,00002195
2015-02-22 01:13:30 r, 17.42m,0000000010Hz,0000048253c,0000000.105s,-007.8C,00002195
2015-02-22 01:23:30 r, 17.42m,0000000009Hz,0000048121c,0000000.104s,-007.8C,00002195
2015-02-22 01:33:30 r, 17.42m,0000000010Hz,0000048134c,0000000.104s,-008.1C,00002195
2015-02-22 01:43:30 r, 17.44m,0000000009Hz,0000048754c,0000000.106s,-008.1C,00002195
2015-02-22 01:53:30 r, 17.44m,0000000009Hz,0000048699c,0000000.106s,-008.1C,00002195
2015-02-22 02:03:30 r, 17.42m,0000000010Hz,0000048306c,0000000.105s,-008.1C,00002195
2015-02-22 02:13:30 r, 17.43m,0000000010Hz,0000048574c,0000000.105s,-008.1C,00002195
2015-02-22 02:23:30 r, 17.42m,0000000010Hz,0000048249c,0000000.105s,-008.1C,00002195
2015-02-22 02:33:30 r, 17.44m,0000000010Hz,0000048795c,0000000.106s,-008.1C,00002195
2015-02-22 02:43:30 r, 17.42m,0000000009Hz,0000048353c,0000000.105s,-008.1C,00002195
2015-02-22 02:53:30 r, 17.44m,0000000009Hz,0000048964c,0000000.106s,-008.1C,00002195
2015-02-22 03:03:30 r, 17.45m,0000000009Hz,0000049484c,0000000.107s,-008.1C,00002195
2015-02-22 03:13:30 r, 17.44m,0000000010Hz,0000048898c,0000000.106s,-008.1C,00002195
2015-02-22 03:23:30 r, 17.44m,0000000009Hz,0000048929c,0000000.106s,-008.4C,00002195
2015-02-22 03:33:30 r, 17.44m,0000000010Hz,0000049022c,0000000.106s,-008.4C,00002195
2015-02-22 03:43:30 r, 17.44m,0000000010Hz,0000049050c,0000000.106s,-008.4C,00002195
2015-02-22 03:53:30 r, 17.45m,0000000010Hz,0000049516c,0000000.107s,-008.4C,00002195
2015-02-22 04:03:30 r, 17.44m,0000000010Hz,0000049044c,0000000.106s,-008.4C,00002195
2015-02-22 04:13:30 r, 17.44m,0000000010Hz,0000048987c,0000000.106s,-008.4C,00002195
2015-02-22 04:23:30 r, 17.44m,0000000009Hz,0000048995c,0000000.106s,-008.4C,00002195
2015-02-22 04:33:30 r, 17.45m,0000000009Hz,0000049484c,0000000.107s,-008.4C,00002195
2015-02-22 04:43:30 r, 17.44m,0000000009Hz,0000049066c,0000000.106s,-008.8C,00002195
2015-02-22 04:53:30 r, 17.44m,0000000009Hz,0000049019c,0000000.106s,-008.8C,00002195
2015-02-22 05:03:30 r, 17.44m,0000000009Hz,0000048968c,0000000.106s,-008.8C,00002195
2015-02-22 05:13:30 r, 17.44m,0000000010Hz,0000049002c,0000000.106s,-008.8C,00002195
2015-02-22 05:23:30 r, 17.44m,0000000009Hz,0000048912c,0000000.106s,-008.8C,00002195
2015-02-22 05:33:30 r, 17.42m,0000000009Hz,0000048134c,0000000.104s,-008.8C,00002195
2015-02-22 05:43:30 r, 17.42m,0000000009Hz,0000048016c,0000000.104s,-008.8C,00002195
2015-02-22 05:53:30 r, 17.42m,0000000010Hz,0000048029c,0000000.104s,-008.8C,00002195
2015-02-22 06:03:30 r, 17.41m,0000000009Hz,0000047792c,0000000.104s,-008.8C,00002195
2015-02-22 06:13:30 r, 17.34m,0000000010Hz,0000045000c,0000000.098s,-008.8C,00002195
2015-02-22 06:23:30 r, 17.11m,0000000013Hz,0000036361c,0000000.079s,-008.8C,00002195
2015-02-22 06:33:30 r, 16.42m,0000000023Hz,0000019430c,0000000.042s,-008.8C,00002195
2015-02-22 06:43:30 r, 15.02m,0000000085Hz,0000005313c,0000000.012s,-008.8C,00002195
2015-02-22 06:53:30 r, 13.00m,0000000562Hz,0000000000c,0000000.000s,-008.8C,00002195
2015-02-22 07:03:30 r, 10.88m,0000003953Hz,0000000000c,0000000.000s,-008.8C,00002195
2015-02-22 07:13:30 r, 09.05m,0000021298Hz,0000000000c,0000000.000s,-009.1C,00002195
2015-02-22 07:23:30 r, 07.73m,0000072100Hz,0000000000c,0000000.000s,-009.1C,00002195
2015-02-22 07:33:30 r, 06.83m,0000165591Hz,0000000000c,0000000.000s,-008.8C,00002195
2015-02-22 07:43:30 r, 06.22m,0000291487Hz,0000000000c,0000000.000s,-008.8C,00002195
2015-02-22 07:53:30 r, 00.00m,0000429284Hz,0000000000c,0000000.000s,-008.8C,00002195
2015-02-22 08:03:30 r, 00.00m,0000558951Hz,0000000000c,0000000.000s,-008.8C,00002195
2015-02-22 08:13:30 r, 00.00m,0000559021Hz,0000000000c,0000000.000s,-008.4C,00002195
2015-02-22 08:23:30 r, 00.00m,0000559046Hz,0000000000c,0000000.000s,-008.4C,00002195
2015-02-22 08:33:30 r, 00.00m,0000559020Hz,0000000000c,0000000.000s,-007.8C,00002195
2015-02-22 08:43:30 r, 00.00m,0000559358Hz,0000000000c,0000000.000s,-007.5C,00002195
2015-02-22 08:53:30 r, 00.00m,0000559458Hz,0000000000c,0000000.000s,-005.9C,00002195
2015-02-22 09:03:30 r, 00.00m,0000559673Hz,0000000000c,0000000.000s,-004.2C,00002195
2015-02-22 09:13:30 r, 00.00m,0000559905Hz,0000000000c,0000000.000s,-002.6C,00002195
2015-02-22 09:23:30 r, 00.00m,0000560069Hz,0000000000c,0000000.000s,-002.0C,00002195
2015-02-22 09:33:30 r, 00.00m,0000560197Hz,0000000000c,0000000.000s,-001.3C,00002195
2015-02-22 09:43:30 r, 00.00m,0000560334Hz,0000000000c,0000000.000s,-000.7C,00002195
2015-02-22 09:53:30 r, 00.00m,0000560475Hz,0000000000c,0000000.000s, 000.1C,00002195
2015-02-22 10:03:30 r, 00.00m,0000560717Hz,0000000000c,0000000.000s, 000.9C,00002195
2015-02-22 10:13:30 r, 00.00m,0000560889Hz,0000000000c,0000000.000s, 001.9C,00002195
2015-02-22 10:23:30 r, 00.00m,0000560969Hz,0000000000c,0000000.000s, 002.9C,00002195
2015-02-22 10:33:30 r, 00.00m,0000561187Hz,0000000000c,0000000.000s, 003.8C,00002195
2015-02-22 10:43:30 r, 00.00m,0000561248Hz,0000000000c,0000000.000s, 004.1C,00002195
2015-02-22 10:53:30 r, 00.00m,0000561174Hz,0000000000c,0000000.000s, 004.8C,00002195
2015-02-22 11:03:30 r, 00.00m,0000561267Hz,0000000000c,0000000.000s, 005.1C,00002195
2015-02-22 11:13:30 r, 00.00m,0000561378Hz,0000000000c,0000000.000s, 005.4C,00002195
2015-02-22 11:23:30 r, 00.00m,0000561484Hz,0000000000c,0000000.000s, 005.8C,00002195
2015-02-22 11:33:30 r, 00.00m,0000561569Hz,0000000000c,0000000.000s, 006.1C,00002195
2015-02-22 11:43:30 r, 00.00m,0000561628Hz,0000000000c,0000000.000s, 006.4C,00002195
2015-02-22 11:53:30 r, 00.00m,0000561713Hz,0000000000c,0000000.000s, 006.7C,00002195
2015-02-22 12:03:30 r, 00.00m,0000561740Hz,0000000000c,0000000.000s, 006.7C,00002195
2015-02-22 12:13:30 r, 00.00m,0000561722Hz,0000000000c,0000000.000s, 007.4C,00002195
2015-02-22 12:23:30 r, 00.00m,0000561979Hz,0000000000c,0000000.000s, 008.0C,00002195
2015-02-22 12:33:30 r, 00.00m,0000561988Hz,0000000000c,0000000.000s, 008.7C,00002195
2015-02-22 12:43:30 r, 00.00m,0000562030Hz,0000000000c,0000000.000s, 009.0C,00002195
2015-02-22 12:53:30 r, 00.00m,0000562062Hz,0000000000c,0000000.000s, 009.0C,00002195
2015-02-22 13:03:30 r, 00.00m,0000562026Hz,0000000000c,0000000.000s, 009.3C,00002195
2015-02-22 13:13:30 r, 00.00m,0000562079Hz,0000000000c,0000000.000s, 009.0C,00002195
2015-02-22 13:23:30 r, 00.00m,0000561955Hz,0000000000c,0000000.000s, 008.7C,00002195
2015-02-22 13:33:30 r, 00.00m,0000562035Hz,0000000000c,0000000.000s, 008.7C,00002195
2015-02-22 13:43:30 r, 00.00m,0000562011Hz,0000000000c,0000000.000s, 008.3C,00002195
2015-02-22 13:53:30 r, 00.00m,0000562018Hz,0000000000c,0000000.000s, 008.7C,00002195
2015-02-22 14:03:30 r, 00.00m,0000561891Hz,0000000000c,0000000.000s, 008.0C,00002195
2015-02-22 14:13:30 r, 00.00m,0000561845Hz,0000000000c,0000000.000s, 008.0C,00002195
2015-02-22 14:23:30 r, 00.00m,0000561785Hz,0000000000c,0000000.000s, 007.7C,00002195
2015-02-22 14:33:30 r, 00.00m,0000561715Hz,0000000000c,0000000.000s, 007.7C,00002195
2015-02-22 14:43:30 r, 00.00m,0000561734Hz,0000000000c,0000000.000s, 007.4C,00002195
2015-02-22 14:53:30 r, 00.00m,0000561524Hz,0000000000c,0000000.000s, 006.7C,00002195
2015-02-22 15:03:30 r, 00.00m,0000561606Hz,0000000000c,0000000.000s, 006.7C,00002195
2015-02-22 15:13:30 r, 00.00m,0000561477Hz,0000000000c,0000000.000s, 006.4C,00002195
2015-02-22 15:23:30 r, 00.00m,0000561277Hz,0000000000c,0000000.000s, 006.4C,00002195
2015-02-22 15:33:30 r, 00.00m,0000561320Hz,0000000000c,0000000.000s, 005.4C,00002195
2015-02-22 15:43:30 r, 00.00m,0000561187Hz,0000000000c,0000000.000s, 005.1C,00002195
2015-02-22 15:53:30 r, 00.00m,0000561014Hz,0000000000c,0000000.000s, 004.1C,00002195
2015-02-22 16:03:30 r, 00.00m,0000560933Hz,0000000000c,0000000.000s, 002.5C,00002195
2015-02-22 16:13:30 r, 00.00m,0000560493Hz,0000000000c,0000000.000s, 000.9C,00002195
2015-02-22 16:23:30 r, 00.00m,0000560356Hz,0000000000c,0000000.000s, 000.1C,00002195
2015-02-22 16:33:30 r, 00.00m,0000560279Hz,0000000000c,0000000.000s,-000.7C,00002195
2015-02-22 16:43:30 r, 00.00m,0000560190Hz,0000000000c,0000000.000s,-001.3C,00002195
2015-02-22 16:53:30 r, 00.00m,0000560082Hz,0000000000c,0000000.000s,-001.3C,00002195
2015-02-22 17:03:30 r, 00.00m,0000560174Hz,0000000000c,0000000.000s,-001.7C,00002195
2015-02-22 17:13:30 r, 00.00m,0000560148Hz,0000000000c,0000000.000s,-001.3C,00002195
2015-02-22 17:23:30 r, 00.00m,0000499795Hz,0000000000c,0000000.000s,-000.7C,00002195
2015-02-22 17:33:30 r, 05.95m,0000372733Hz,0000000000c,0000000.000s,-001.0C,00002195
2015-02-22 17:43:30 r, 06.39m,0000245764Hz,0000000000c,0000000.000s,-001.3C,00002195
2015-02-22 17:53:30 r, 07.07m,0000132979Hz,0000000000c,0000000.000s,-001.7C,00002195
2015-02-22 18:03:30 r, 08.06m,0000053398Hz,0000000000c,0000000.000s,-002.0C,00002195
2015-02-22 18:13:30 r, 09.50m,0000014148Hz,0000000000c,0000000.000s,-002.3C,00002195
2015-02-22 18:23:30 r, 11.40m,0000002451Hz,0000000000c,0000000.000s,-002.3C,00002195
2015-02-22 18:33:30 r, 13.54m,0000000342Hz,0000000000c,0000000.000s,-002.6C,00002195
2015-02-22 18:43:30 r, 15.46m,0000000058Hz,0000007951c,0000000.017s,-002.6C,00002195
2015-02-22 18:53:30 r, 16.66m,0000000020Hz,0000023974c,0000000.052s,-002.6C,00002195
2015-02-22 19:03:30 r, 17.19m,0000000012Hz,0000039329c,0000000.085s,-003.0C,00002195
2015-02-22 19:13:30 r, 17.37m,0000000010Hz,0000046084c,0000000.100s,-003.0C,00002195
2015-02-22 19:23:30 r, 17.41m,0000000010Hz,0000048026c,0000000.104s,-003.3C,00002195
2015-02-22 19:33:30 r, 17.43m,0000000010Hz,0000048822c,0000000.106s,-003.3C,00002195
2015-02-22 19:43:30 r, 17.44m,0000000009Hz,0000048947c,0000000.106s,-003.3C,00002195
2015-02-22 19:53:30 r, 17.44m,0000000009Hz,0000049019c,0000000.106s,-003.3C,00002195
2015-02-22 20:03:30 r, 17.44m,0000000009Hz,0000049632c,0000000.108s,-003.3C,00002195
2015-02-22 20:13:30 r, 17.45m,0000000009Hz,0000049802c,0000000.108s,-003.3C,00002195
2015-02-22 20:23:30 r, 17.45m,0000000010Hz,0000049691c,0000000.108s,-003.3C,00002195
2015-02-22 20:33:30 r, 17.46m,0000000009Hz,0000050028c,0000000.109s,-003.3C,00002195
2015-02-22 20:43:30 r, 17.46m,0000000009Hz,0000050126c,0000000.109s,-003.3C,00002195
2015-02-22 20:53:30 r, 17.46m,0000000010Hz,0000050176c,0000000.109s,-003.3C,00002195
2015-02-22 21:03:30 r, 17.47m,0000000009Hz,0000050874c,0000000.110s,-003.3C,00002195
2015-02-22 21:13:30 r, 17.47m,0000000009Hz,0000050884c,0000000.110s,-003.3C,00002195
2015-02-22 21:23:30 r, 17.48m,0000000009Hz,0000050948c,0000000.111s,-003.3C,00002195
2015-02-22 21:33:30 r, 17.49m,0000000009Hz,0000051751c,0000000.112s,-003.3C,00002195
2015-02-22 21:43:30 r, 17.49m,0000000008Hz,0000051800c,0000000.112s,-003.6C,00002195
2015-02-22 21:53:30 r, 17.49m,0000000008Hz,0000051309c,0000000.111s,-003.6C,00002195
2015-02-22 22:03:30 r, 17.49m,0000000009Hz,0000051805c,0000000.112s,-003.6C,00002195
2015-02-22 22:13:30 r, 17.49m,0000000009Hz,0000051959c,0000000.113s,-003.6C,00002195
2015-02-22 22:23:30 r, 17.50m,0000000008Hz,0000052087c,0000000.113s,-003.6C,00002195
2015-02-22 22:33:30 r, 17.51m,0000000009Hz,0000052288c,0000000.113s,-003.6C,00002195
2015-02-22 22:43:30 r, 17.52m,0000000008Hz,0000053061c,0000000.115s,-003.6C,00002195
2015-02-22 22:53:30 r, 17.53m,0000000008Hz,0000053451c,0000000.116s,-003.9C,00002195
2015-02-22 23:03:30 r, 17.53m,0000000008Hz,0000053720c,0000000.117s,-003.9C,00002195
2015-02-22 23:13:30 r, 17.54m,0000000008Hz,0000053818c,0000000.117s,-003.9C,00002195
2015-02-22 23:23:30 r, 17.54m,0000000008Hz,0000053855c,0000000.117s,-003.9C,00002195
2015-02-22 23:33:30 r, 17.54m,0000000009Hz,0000053992c,0000000.117s,-003.9C,00002195
2015-02-22 23:43:30 r, 17.55m,0000000008Hz,0000054456c,0000000.118s,-003.9C,00002195
2015-02-22 23:53:30 r, 17.55m,0000000008Hz,0000054616c,0000000.119s,-003.9C,00002195
